sat.trackr.live / text

‹ back to catalog

STARLINK-2314

NORAD 47788 · 2021-018B

PAYLOAD ACTIVE UNKNOWN

§ Identity

Operator
Country
US
Launch date
2021-03-11
Launch site
AFETR
Launch vehicle
Mass (kg)
RCS (m²)

Purposes: comms

External: N2YO · Heavens-Above · Gunter

§ Orbital elements

Epoch: 2026-09-20T00:59:29.332608Z

Period
92.96 min
Inclination
53.1529°
Eccentricity
0.0001712
Mean motion
15.49043625 rev/d
Perigee alt
418.4 km
Apogee alt
420.7 km
Semi-major
6,797.7 km
B*
1.0267e-3
RAAN
23.9975°
Arg perigee
340.7472°
Mean anomaly
19.3472°
Rev number
30,700

§ Raw data

STARLINK-23141 47788U 21018B   26263.04131172  .00056535  00000+0  10267-2 0  99952 47788  53.1529  23.9975 0001712 340.7472  19.3472 15.49043625307009

JSON: /api/v1/satellites/47788 · /tle

For live sub-satellite position, see the globe view (requires WebGL).

§ Visibility from observer

Set your observer location to see the next 7 days of passes ≥ 10°. The values pass through the URL so the page stays shareable.

No JS? Fill the form by hand. The geolocation button needs JavaScript.